Flag for U.S.A. Weather past 2 weeks in West Palm Beach, Florida, U.S.A.

Now
86 °F

Partly sunny.


Feels Like: 94 °F
Forecast: 80 / 89 °F
Wind: 13 mph from Southeast

Location: Palm Beach International Airport

Current Time: Jul 4, 2015 at 6:55:31 PM

Latest Report: Jul 4, 2015 at 5:53 PM


Visibility: 10 mi

Pressure: 30.10 "Hg

Humidity: 67%

Dew point: 74 °F

Location of West Palm BeachLocation

Historic Weather in West Palm Beach — Graph

°F

West Palm Beach temperature yesterday

Maximum temperature yesterday: 90 °F (at 2:53 PM)
Minimum temperature yesterday: 77 °F (at 4:53 AM)
Average temperature yesterday: 84 °F

Past Weeks' High & Low Weather Summary

 TemperatureHumidityPressure
High93 °F (Jun 29, 1:53 PM)94% (Jun 21, 5:53 AM)30.23 "Hg (Jun 21, 5:53 AM)
Low72 °F (Jun 30, 11:53 PM)46% (Jun 30, 12:53 PM)30.03 "Hg (Jun 28, 4:53 AM)
Average84 °F72%30.10 "Hg
* Reported Jun 19 5:53 PM — Jul 4 5:53 PM, West Palm Beach, Weather by CustomWeather, © 2015

Note: Actual official high and low records may vary slightly from our data, if they occured in-between our weather recording intervals... More about our weather records

Advertising

West Palm Beach weather history for previous 24 hours

 ConditionsComfort  
Time TempWeatherWind HumidityBarometerVisibility
5:53 PM
Sat, Jul 4
86 °FPartly sunny.13 mph67%30.10 "Hg10 mi
4:53 PM88 °FPartly sunny.10 mph63%30.10 "Hg10 mi
3:53 PM88 °FPartly sunny.14 mph61%30.11 "Hg10 mi
2:53 PM88 °FBroken clouds.13 mph65%30.11 "Hg10 mi
1:53 PM86 °FBroken clouds.10 mph67%30.13 "Hg10 mi
12:53 PM84 °FBroken clouds.8 mph77%30.15 "Hg10 mi
11:53 AM79 °FThunderstorms. Broken clouds.No wind77%30.15 "Hg10 mi
10:53 AM83 °FThunderstorms. Broken clouds.8 mph74%30.14 "Hg10 mi
9:53 AM80 °FThunderstorms. Broken clouds.9 mph81%30.14 "Hg10 mi
8:53 AM79 °FThunderstorms. Broken clouds.8 mph84%30.13 "Hg9 mi
7:53 AM83 °FScattered clouds.3 mph82%30.12 "Hg10 mi
6:53 AM81 °FPartly cloudy.6 mph88%30.09 "Hg10 mi
5:53 AM77 °FPassing clouds.No wind90%30.08 "Hg10 mi
4:53 AM77 °FPassing clouds.3 mph90%30.08 "Hg10 mi
3:53 AM77 °FPassing clouds.No wind85%30.07 "Hg10 mi
2:53 AM78 °FPassing clouds.No wind79%30.07 "Hg10 mi
1:53 AM77 °FLight rain. Mostly cloudy.5 mph82%30.11 "Hg10 mi
12:53 AM78 °FLight rain. Passing clouds.5 mph82%30.12 "Hg10 mi
11:53 PM
Fri, Jul 3
83 °FThunderstorms. Partly cloudy.8 mph77%30.13 "Hg10 mi
10:53 PM83 °FPartly cloudy.7 mph77%30.13 "Hg10 mi
9:53 PM84 °FPartly cloudy.8 mph74%30.11 "Hg10 mi
8:53 PM84 °FBroken clouds.12 mph74%30.09 "Hg10 mi
7:53 PM85 °FBroken clouds.16 mph72%30.07 "Hg10 mi
6:53 PM85 °FBroken clouds.14 mph70%30.06 "Hg10 mi
Weather by CustomWeather, © 2015

See weather overviewHow to use our weather pages